Observations for Trim Market St
| Time | AQI | Temp °C | Hum % | Pres Pa | CO μg/m³ | H₂S μg/m³ | NO μg/m³ | NO₂ μg/m³ | O₃ μg/m³ | SO₂ μg/m³ | PM1 μg/m³ | PM2.5 μg/m³ | PM10 μg/m³ |
|---|---|---|---|---|---|---|---|---|---|---|---|---|---|
| Monday 24 August 2026 | |||||||||||||
| 04:59 | 1 | 8.6 | 79 | 35,719 | 0.63 | 0 | 7.69 | 14.16 | 6.59 | 0 | 3.56 | 4.54 | 9.26 |
| 04:57 | 1 | 8.6 | 79 | 35,983 | 0.64 | 0 | 7.32 | 14.94 | 6.85 | 0 | 4.28 | 5.01 | 8.68 |
| 04:53 | 1 | 8.6 | 79 | 36,387 | 0.64 | 0 | 7.34 | 13.27 | 8.48 | 0 | 4.99 | 5.96 | 9.83 |
| 04:49 | 1 | 8.6 | 79 | 36,445 | 0.64 | 0 | 6.16 | 13.55 | 9.43 | 0 | 4.28 | 6.44 | 10.41 |
| 04:47 | 1 | 8.6 | 79 | 36,498 | 0.64 | 0 | 6.44 | 13.69 | 8.4 | 0 | 2.85 | 4.54 | 8.11 |
| 04:43 | 1 | 8.7 | 79 | 36,518 | 0.65 | 0 | 5.43 | 13.91 | 10.89 | 0 | 4.99 | 5.49 | 8.68 |
| 04:42 | 1 | 8.7 | 79 | 36,575 | 0.63 | 0 | 5.2 | 13.16 | 11.08 | 0 | 4.99 | 5.02 | 9.83 |
| 04:41 | 1 | 8.7 | 79 | 36,598 | 0.63 | 0 | 5.1 | 13.16 | 11.08 | 0 | 5.7 | 6.44 | 10.41 |
| 04:40 | 2 | 8.7 | 79 | 36,609 | 0.63 | 0 | 5.73 | 13.32 | 9.17 | 0 | 4.28 | 5.97 | 9.26 |
| 04:39 | 1 | 8.7 | 79 | 36,599 | 0.64 | 0 | 5.86 | 13.32 | 9.58 | 0 | 5.7 | 6.44 | 9.83 |
| 04:38 | 1 | 8.7 | 79 | 36,597 | 0.64 | 0 | 6.07 | 13.16 | 10.87 | 0 | 3.56 | 4.54 | 9.26 |
| 04:36 | 2 | 8.7 | 79 | 36,559 | 0.64 | 0 | 7.09 | 12.84 | 9.7 | 0 | 5.7 | 6.91 | 10.41 |
| 04:35 | 2 | 8.8 | 79 | 36,495 | 0.63 | 0 | 7.53 | 13.08 | 10.78 | 0 | 4.99 | 5.97 | 9.83 |
| 04:34 | 2 | 8.7 | 79 | 36,450 | 0.64 | 0 | 8.98 | 13.16 | 11.48 | 0 | 4.99 | 5.49 | 9.83 |
| 04:33 | 2 | 8.7 | 79 | 36,416 | 0.64 | 0 | 8.9 | 13.32 | 10.61 | 0 | 4.28 | 5.02 | 8.68 |
| 04:31 | 2 | 8.7 | 79 | 36,286 | 0.64 | 0 | 9.32 | 12.16 | 16.54 | 0 | 3.56 | 5.49 | 9.83 |
| 04:28 | 2 | 8.8 | 79 | 36,239 | 0.61 | 0 | 5.83 | 13.24 | 11.33 | 0 | 4.28 | 5.02 | 8.11 |
| 04:23 | 2 | 8.8 | 78 | 36,552 | 0.62 | 0 | 5.72 | 13.2 | 12.46 | 0 | 4.99 | 6.45 | 9.84 |
| 04:18 | 2 | 8.8 | 78 | 37,429 | 0.63 | 0 | 14.74 | 13.35 | 15.12 | 0 | 4.99 | 5.5 | 9.84 |
| 04:13 | 2 | 8.9 | 78 | 38,050 | 0.6 | 0 | 6.38 | 13.09 | 11.38 | 0 | 4.28 | 5.51 | 9.26 |